Regional Weather Roundup
Issued by NWS

Home | Current Version | Previous Version | Text Only | Print | Product List | Glossary On
Versions: 1 2 3 4 5 6 7 8 9 10 11 12 13 14 15 16 17 18 19 20 21 22 23 24 25 26 27 28 29 30 31 32 33 34 35 36 37 38 39 40 41 42 43 44 45 46 47 48 49 50
000
ASUS43 KLSX 222007
RWRMO

WEATHER SUMMARY FOR MISSOURI
NATIONAL WEATHER SERVICE SPRINGFIELD MO
300 PM CDT WED OCT 22 2014

NOTE: "FAIR" INDICATES FEW OR NO CLOUDS BELOW 12,000 FEET WITH NO
       SIGNIFICANT WEATHER AND/OR OBSTRUCTIONS TO VISIBILITY.
       CURRENT SKY AND/OR WEATHER CONDITIONS ARE NOT AVAILABLE FOR
       CHILLICOTHE AND FARMINGTON.

MOZ001>031-035>038-043-044-053-054-222100-
...NORTHERN AND WESTERN MISSOURI...

CITY           SKY/WX    TMP DP  RH WIND       PRES   REMARKS
KANSAS CTY INT MOSUNNY   71  56  58 SE17      30.10F
KANSAS C DTWN  SUNNY     74  54  49 SE9       30.10F
LEE`S SUMMIT   SUNNY     71  53  52 SE10      30.13F
ST JOSEPH      SUNNY     73  54  51 SE15      30.09F
CHILLICOTHE      N/A     68  48  48 SE10G17   30.16F
KIRKSVILLE     SUNNY     63  46  54 SE14      30.21F

$$
MOZ066>068-077>081-088>096-101>105-222100-
...SOUTHWEST MISSOURI...

CITY           SKY/WX    TMP DP  RH WIND       PRES   REMARKS
SPRINGFIELD    SUNNY     70  48  45 SE8       30.16F
JOPLIN         MOSUNNY   73  56  54 VRB3      30.13F

$$
MOZ032>034-039>042-045>050-055>058-069>072-222100-
...CENTRAL MISSOURI...

CITY           SKY/WX    TMP DP  RH WIND       PRES   REMARKS
COLUMBIA       SUNNY     65  45  48 VRB7      30.21F
JEFFERSON CITY SUNNY     67  43  41 SE7       30.20F
ROLLA          SUNNY     65  42  43 SE7       30.20F
SEDALIA        SUNNY     70  47  43 SE13      30.17F
WHITEMAN AFB   SUNNY     71  50  46 SE10      30.14F
OSAGE BEACH    SUNNY     70  45  40 S6        30.19F

$$
MOZ051-052-059>065-222100-
...EAST CENTRAL MISSOURI...

CITY           SKY/WX    TMP DP  RH WIND       PRES   REMARKS
ST LOUIS INTL  SUNNY     63  44  50 SE6       30.25F
SPIRIT OF STL  SUNNY     62  44  51 E7        30.24F
ST CHARLES     SUNNY     62  43  49 S6        30.24F

$$
MOZ072>076-082>087-097>100-106>115-222100-
...SOUTH CENTRAL AND SOUTHEAST MISSOURI...

CITY           SKY/WX    TMP DP  RH WIND       PRES   REMARKS
CAPE GIRARDEAU SUNNY     64  43  46 E8        30.24F
FARMINGTON     SUNNY     63  43  48 NE7       30.25F
POPLAR BLUFF   SUNNY     64  40  41 E5        30.22F
WEST PLAINS    SUNNY     65  44  46 E7        30.22F

$$



USA.gov is the U.S. government's official web portal to all federal, state and local government web resources and services.